SUR1166 SABE-SAWC

Flight info

Callsign SUR1166
Flight time N/A
Altitude 34000
Route PTA8 GBE UT694 IREMO UP664 CRV UW48 BOKUK BOKUK2Q
Aircraft B738/M-SDE2E3FGHIRWXY/LB1

Departure

Time 2026-04-30 19:00
Airport Aeroparque Jorge Newbery (SABE)

Arrival

Time N/A
Airport El Calafate - Commander Armando Tola International Airport (SAWC)
Time Latitude Longitude Altitude Speed Heading
2026-04-30 18:20 -34.55738 -58.41356 26 ft 0 kts 32°
2026-04-30 18:49 -34.55745 -58.41361 26 ft 2 kts 32°
2026-04-30 18:50 -34.55756 -58.41370 26 ft 0 kts 32°
2026-04-30 18:50 -34.55766 -58.41376 26 ft 2 kts
2026-04-30 18:50 -34.55781 -58.41375 26 ft 2 kts 338°
2026-04-30 18:50 -34.55793 -58.41365 26 ft 1 kts 309°
2026-04-30 18:51 -34.55797 -58.41359 26 ft 1 kts 300°
2026-04-30 18:51 -34.55798 -58.41356 26 ft 0 kts 302°
2026-04-30 18:54 -34.55795 -58.41361 26 ft 2 kts 302°
2026-04-30 18:54 -34.55779 -58.41392 26 ft 6 kts 302°
2026-04-30 18:54 -34.55748 -58.41452 26 ft 8 kts 302°
2026-04-30 18:55 -34.55727 -58.41518 26 ft 7 kts 265°
2026-04-30 18:55 -34.55776 -58.41625 26 ft 6 kts 271°
2026-04-30 18:55 -34.55762 -58.41676 26 ft 6 kts 293°
2026-04-30 18:56 -34.55724 -58.41766 26 ft 6 kts 300°
2026-04-30 18:56 -34.55701 -58.41810 26 ft 5 kts 301°
2026-04-30 18:56 -34.55680 -58.41850 26 ft 5 kts 304°
2026-04-30 18:57 -34.55605 -58.41978 26 ft 12 kts 305°
2026-04-30 18:57 -34.55550 -58.42073 26 ft 14 kts 306°
2026-04-30 18:57 -34.55492 -58.42168 26 ft 13 kts 306°
2026-04-30 18:58 -34.55382 -58.42343 26 ft 13 kts 305°
2026-04-30 18:58 -34.55355 -58.42445 26 ft 12 kts 268°
2026-04-30 18:58 -34.55406 -58.42500 26 ft 9 kts 158°
2026-04-30 18:59 -34.55447 -58.42430 26 ft 25 kts 122°
2026-04-30 19:00 -34.56895 -58.39813 381 ft 183 kts 121°
2026-04-30 19:00 -34.57610 -58.38456 830 ft 195 kts 119°
2026-04-30 19:00 -34.58545 -58.35197 1658 ft 218 kts 88°
2026-04-30 19:01 -34.57898 -58.31734 2988 ft 213 kts 60°
2026-04-30 19:01 -34.57221 -58.30134 3625 ft 214 kts 58°
2026-04-30 19:02 -34.56146 -58.26834 5037 ft 210 kts 73°
2026-04-30 19:02 -34.55854 -58.23352 6317 ft 212 kts 88°
2026-04-30 19:03 -34.57105 -58.20093 7296 ft 229 kts 140°
2026-04-30 19:03 -34.60128 -58.19043 8289 ft 232 kts 190°
2026-04-30 19:04 -34.63332 -58.19875 9178 ft 244 kts 197°
2026-04-30 19:04 -34.66914 -58.20781 9766 ft 278 kts 194°
2026-04-30 19:05 -34.70898 -58.21708 10552 ft 305 kts 194°
2026-04-30 19:05 -34.75274 -58.22733 11294 ft 331 kts 194°
2026-04-30 19:06 -34.79846 -58.23802 12630 ft 338 kts 195°
2026-04-30 19:06 -34.82165 -58.24343 13279 ft 340 kts 195°
2026-04-30 19:06 -34.86849 -58.25444 14652 ft 345 kts 196°
2026-04-30 19:07 -34.91616 -58.26568 16074 ft 349 kts 197°
2026-04-30 19:07 -34.94016 -58.27135 16719 ft 352 kts 198°
2026-04-30 19:08 -34.98849 -58.28278 18011 ft 356 kts 198°
2026-04-30 19:08 -35.03767 -58.29443 19129 ft 363 kts 199°
2026-04-30 19:08 -35.06244 -58.30031 19641 ft 368 kts 199°
2026-04-30 19:09 -35.11309 -58.31234 20691 ft 374 kts 199°
2026-04-30 19:09 -35.13905 -58.31850 21180 ft 378 kts 200°
2026-04-30 19:09 -35.16501 -58.32467 21682 ft 380 kts 200°
2026-04-30 19:10 -35.21741 -58.33710 22635 ft 386 kts 200°
2026-04-30 19:10 -35.27061 -58.34976 23542 ft 392 kts 200°
2026-04-30 19:11 -35.29737 -58.35614 23984 ft 395 kts 200°
2026-04-30 19:11 -35.35197 -58.36915 24886 ft 400 kts 200°
2026-04-30 19:11 -35.37940 -58.37569 25343 ft 402 kts 200°
2026-04-30 19:12 -35.40694 -58.38227 25755 ft 405 kts 200°
2026-04-30 19:12 -35.43469 -58.38890 26142 ft 408 kts 200°
2026-04-30 19:12 -35.46270 -58.39560 26575 ft 410 kts 200°
2026-04-30 19:13 -35.51911 -58.40908 27408 ft 413 kts 200°
2026-04-30 19:13 -35.57610 -58.42276 28150 ft 418 kts 200°
2026-04-30 19:13 -35.60439 -58.42954 28513 ft 420 kts 200°
2026-04-30 19:14 -35.63363 -58.43658 28832 ft 423 kts 200°
2026-04-30 19:14 -35.66237 -58.44350 29187 ft 425 kts 201°
2026-04-30 19:14 -35.69177 -58.45056 29553 ft 427 kts 201°
2026-04-30 19:14 -35.72068 -58.45838 29881 ft 425 kts 204°
2026-04-30 19:15 -35.74865 -58.46883 30235 ft 418 kts 210°
2026-04-30 19:15 -35.80021 -58.49972 30824 ft 410 kts 220°
2026-04-30 19:15 -35.82446 -58.51804 31178 ft 408 kts 221°
2026-04-30 19:16 -35.84859 -58.53706 31413 ft 411 kts 221°
2026-04-30 19:16 -35.87270 -58.55627 31786 ft 411 kts 221°
2026-04-30 19:16 -35.92113 -58.59464 32349 ft 415 kts 221°
2026-04-30 19:17 -35.94577 -58.61398 32584 ft 418 kts 221°
2026-04-30 19:17 -35.99554 -58.65273 33072 ft 422 kts 221°
2026-04-30 19:17 -36.02040 -58.67199 33589 ft 418 kts 221°
2026-04-30 19:18 -36.06170 -58.70388 33940 ft 418 kts 221°
2026-04-30 19:18 -36.09496 -58.72960 33940 ft 414 kts 221°
2026-04-30 19:19 -36.14347 -58.76714 33938 ft 411 kts 222°
2026-04-30 19:19 -36.21648 -58.82390 33936 ft 411 kts 222°
2026-04-30 19:20 -36.26514 -58.86179 33936 ft 413 kts 222°
2026-04-30 19:21 -36.33842 -58.91894 33932 ft 412 kts 222°
2026-04-30 19:22 -36.43525 -58.99461 33933 ft 411 kts 222°
2026-04-30 19:23 -36.58082 -59.10880 33927 ft 411 kts 222°
2026-04-30 19:24 -36.65369 -59.16615 33928 ft 408 kts 223°
2026-04-30 19:25 -36.77399 -59.26116 33929 ft 409 kts 223°
2026-04-30 19:26 -36.86967 -59.33696 33923 ft 410 kts 223°
2026-04-30 19:27 -36.94202 -59.39441 33924 ft 408 kts 223°
2026-04-30 19:28 -37.01360 -59.45140 33922 ft 408 kts 223°
2026-04-30 19:29 -37.10932 -59.52781 33925 ft 408 kts 223°
2026-04-30 19:30 -37.20467 -59.60455 33918 ft 405 kts 224°
2026-04-30 19:31 -37.29809 -59.68386 33909 ft 401 kts 225°
2026-04-30 19:31 -37.36806 -59.74352 33907 ft 403 kts 225°
2026-04-30 19:32 -37.41430 -59.78282 33904 ft 402 kts 225°
2026-04-30 19:32 -37.46091 -59.82251 33904 ft 404 kts 225°
2026-04-30 19:33 -37.50743 -59.86211 33893 ft 401 kts 225°
2026-04-30 19:33 -37.55363 -59.90174 33896 ft 402 kts 225°
2026-04-30 19:34 -37.59998 -59.94145 33889 ft 401 kts 225°
2026-04-30 19:35 -37.66901 -60.00036 33886 ft 401 kts 225°
2026-04-30 19:35 -37.71560 -60.04038 33879 ft 403 kts 225°
2026-04-30 19:36 -37.76172 -60.07991 33879 ft 402 kts 225°
2026-04-30 19:36 -37.83095 -60.13947 33885 ft 399 kts 225°
2026-04-30 19:37 -37.87744 -60.17960 33882 ft 399 kts 225°
2026-04-30 19:37 -37.92356 -60.21944 33884 ft 401 kts 225°
2026-04-30 19:38 -37.96960 -60.25928 33881 ft 402 kts 225°
2026-04-30 19:38 -38.01573 -60.29924 33881 ft 399 kts 225°
2026-04-30 19:39 -38.06209 -60.33949 33878 ft 402 kts 225°
2026-04-30 19:39 -38.10794 -60.37938 33869 ft 401 kts 225°
2026-04-30 19:40 -38.15437 -60.41975 33863 ft 400 kts 225°
2026-04-30 19:40 -38.20074 -60.45949 33869 ft 401 kts 224°
2026-04-30 19:41 -38.24751 -60.49900 33860 ft 401 kts 224°
2026-04-30 19:41 -38.29430 -60.53857 33860 ft 401 kts 224°
2026-04-30 19:42 -38.34053 -60.57781 33855 ft 403 kts 225°
2026-04-30 19:42 -38.38751 -60.61784 33845 ft 403 kts 224°
2026-04-30 19:43 -38.43442 -60.65786 33844 ft 403 kts 225°
2026-04-30 19:44 -38.50424 -60.71754 33838 ft 403 kts 224°
2026-04-30 19:44 -38.55077 -60.75738 33833 ft 400 kts 225°
2026-04-30 19:45 -38.59733 -60.79737 33832 ft 403 kts 225°
2026-04-30 19:45 -38.64411 -60.83758 33833 ft 403 kts 225°
2026-04-30 19:46 -38.69067 -60.87762 33819 ft 402 kts 225°
2026-04-30 19:46 -38.73722 -60.91776 33814 ft 403 kts 225°
2026-04-30 19:47 -38.78373 -60.95790 33810 ft 400 kts 224°
2026-04-30 19:47 -38.83035 -60.99822 33819 ft 402 kts 224°
2026-04-30 19:48 -38.87662 -61.03827 33805 ft 401 kts 224°
2026-04-30 19:48 -38.92347 -61.07897 33800 ft 403 kts 225°
2026-04-30 19:49 -38.96995 -61.11935 33797 ft 402 kts 225°
2026-04-30 19:49 -39.03966 -61.18006 33794 ft 401 kts 224°
2026-04-30 19:50 -39.08580 -61.22028 33789 ft 400 kts 224°
2026-04-30 19:50 -39.13217 -61.26083 33788 ft 400 kts 224°
2026-04-30 19:51 -39.17853 -61.30148 33787 ft 402 kts 224°
2026-04-30 19:51 -39.22454 -61.34178 33785 ft 401 kts 224°
2026-04-30 19:52 -39.27081 -61.38242 33787 ft 400 kts 224°
2026-04-30 19:52 -39.31713 -61.42315 33787 ft 401 kts 224°
2026-04-30 19:53 -39.36331 -61.46382 33784 ft 399 kts 224°
2026-04-30 19:53 -39.40919 -61.50433 33781 ft 399 kts 224°
2026-04-30 19:54 -39.45540 -61.54522 33775 ft 400 kts 224°
2026-04-30 19:54 -39.50115 -61.58570 33777 ft 398 kts 224°
2026-04-30 19:55 -39.54720 -61.62654 33775 ft 400 kts 225°
2026-04-30 19:55 -39.59290 -61.66715 33768 ft 399 kts 225°
2026-04-30 19:56 -39.63872 -61.70790 33760 ft 398 kts 225°
2026-04-30 19:56 -39.68458 -61.74879 33761 ft 398 kts 225°
2026-04-30 19:57 -39.73042 -61.78968 33766 ft 397 kts 225°
2026-04-30 19:57 -39.77591 -61.83031 33766 ft 396 kts 225°
2026-04-30 19:58 -39.82127 -61.87100 33761 ft 396 kts 225°
2026-04-30 19:58 -39.86664 -61.91167 33762 ft 396 kts 225°
2026-04-30 19:59 -39.91052 -61.95514 33763 ft 390 kts 230°
2026-04-30 20:00 -39.97300 -62.02367 33762 ft 390 kts 230°
2026-04-30 20:00 -40.01471 -62.06920 33757 ft 389 kts 230°
2026-04-30 20:01 -40.07719 -62.13676 33758 ft 388 kts 229°
2026-04-30 20:01 -40.11912 -62.18196 33756 ft 389 kts 230°
2026-04-30 20:02 -40.18207 -62.24992 33743 ft 390 kts 230°
2026-04-30 20:03 -40.24523 -62.31824 33728 ft 390 kts 230°
2026-04-30 20:03 -40.28695 -62.36347 33728 ft 389 kts 230°
2026-04-30 20:04 -40.32881 -62.40895 33720 ft 390 kts 230°
2026-04-30 20:05 -40.39171 -62.47744 33721 ft 389 kts 230°
2026-04-30 20:05 -40.45443 -62.54588 33722 ft 390 kts 230°
2026-04-30 20:06 -40.49609 -62.59140 33721 ft 390 kts 230°
2026-04-30 20:06 -40.53789 -62.63717 33720 ft 389 kts 230°
2026-04-30 20:07 -40.57977 -62.68311 33714 ft 389 kts 230°
2026-04-30 20:08 -40.64219 -62.75173 33720 ft 390 kts 231°
2026-04-30 20:08 -40.68376 -62.79754 33710 ft 388 kts 231°
2026-04-30 20:09 -40.72526 -62.84335 33713 ft 389 kts 231°
2026-04-30 20:09 -40.78731 -62.91194 33712 ft 388 kts 231°
2026-04-30 20:10 -40.84941 -62.98077 33712 ft 387 kts 231°
2026-04-30 20:11 -40.91474 -63.04637 33706 ft 396 kts 226°
2026-04-30 20:11 -40.96046 -63.08768 33710 ft 397 kts 226°
2026-04-30 20:12 -41.02857 -63.14961 33707 ft 396 kts 226°
2026-04-30 20:13 -41.07381 -63.19120 33703 ft 394 kts 226°
2026-04-30 20:13 -41.11897 -63.23305 33697 ft 395 kts 226°
2026-04-30 20:14 -41.16396 -63.27485 33695 ft 393 kts 226°
2026-04-30 20:14 -41.20898 -63.31671 33687 ft 393 kts 226°